Location: The Saddle
(36.8333°N, 80.3417°W)
Time: 14:25:00
(UTC-04:00)

Courier 1B - Pass Details

Date: 24 September 2024
Orbit: 962 x 1208 km, 28.3° (Epoch: 06 October)

Event Time Altitude Azimuth Distance (km) Brightness Sun altitude
Rises 15:49:31 0° 264° (W) 3,753 11.3 37.7°
Reaches altitude 10° 15:52:29 10° 254° (WSW) 2,837 11.1 37.2°
Maximum altitude 15:58:20 29° 196° (SSW) 1,842 10.1 36.3°
Drops below altitude 10° 16:04:30 10° 139° (SE) 2,990 10.1 35.3°
Sets 16:07:44 0° 129° (SE) 3,988 10.5 34.7°
